When you browse on this site, cookies collect data to enhance your experience and personalize the content and advertising you see.
Visit our Privacy Policy to learn more. By continuing to use the site, you agree to this use of cookies and data.
  • In United Kingdom
  • List of Countries
  • For 7 days
  • Water Temperature
  • Weather Map
  • Weather Widgets
  • user-avatar
    Login

    Hourly Weather Harare

    Today, 20 October, Sunday

    Time Temperature Precipitation Wind Pressure Humidity
    00:00 +19°C° 0 mm 2 mps 638 mmHg 28%
    01:00 +19°C° 0 mm 2 mps 638 mmHg 34%
    02:00 +18°C° 0 mm 2 mps 638 mmHg 40%
    03:00 +18°C° 0 mm 2 mps 638 mmHg 47%
    04:00 +17°C° 0 mm 2 mps 638 mmHg 53%
    05:00 +17°C° 0 mm 2 mps 638 mmHg 60%
    06:00 +19°C° 0 mm 2 mps 639 mmHg 55%
    07:00 +22°C° 0 mm 3 mps 640 mmHg 50%
    08:00 +25°C° 0 mm 3 mps 641 mmHg 45%
    09:00 +29°C° 0 mm 2 mps 642 mmHg 34%
    10:00 +33°C° 0 mm 1 mps 642 mmHg 24%
    11:00 +34°C° 0 mm 0 mps 643 mmHg 13%
    12:00 +36°C° 0 mm 1 mps 642 mmHg 12%
    13:00 +37°C° 0 mm 1 mps 641 mmHg 11%
    14:00 +37°C° 0 mm 1 mps 640 mmHg 9%
    15:00 +35°C° 0 mm 1 mps 640 mmHg 10%
    16:00 +35°C° 0 mm 2 mps 639 mmHg 10%
    17:00 +34°C° 0 mm 2 mps 638 mmHg 10%
    18:00 +31°C° 0 mm 2 mps 638 mmHg 13%
    19:00 +28°C° 0 mm 3 mps 638 mmHg 17%
    20:00 +25°C° 0 mm 3 mps 638 mmHg 21%
    21:00 +24°C° 0 mm 2 mps 638 mmHg 26%
    22:00 +23°C° 0 mm 2 mps 638 mmHg 31%
    23:00 +22°C° 0 mm 1 mps 638 mmHg 36%

    Tomorrow, 21 October, Monday

    Time Temperature Precipitation Wind Pressure Humidity
    00:00 +22°C° 0 mm 1 mps 638 mmHg 38%
    01:00 +21°C° 0 mm 1 mps 638 mmHg 41%
    02:00 +21°C° 0 mm 1 mps 637 mmHg 44%
    03:00 +20°C° 0 mm 2 mps 637 mmHg 46%
    04:00 +19°C° 0 mm 2 mps 637 mmHg 49%
    05:00 +19°C° 0 mm 2 mps 637 mmHg 51%
    06:00 +21°C° 0 mm 2 mps 638 mmHg 47%
    07:00 +25°C° 0 mm 3 mps 639 mmHg 42%
    08:00 +27°C° 0 mm 3 mps 640 mmHg 37%
    09:00 +30°C° 0 mm 3 mps 640 mmHg 30%
    10:00 +32°C° 0 mm 2 mps 641 mmHg 23%
    11:00 +36°C° 0 mm 2 mps 641 mmHg 15%
    12:00 +37°C° 0 mm 2 mps 640 mmHg 14%
    13:00 +37°C° 0 mm 3 mps 640 mmHg 12%
    14:00 +38°C° 0 mm 3 mps 639 mmHg 11%
    15:00 +37°C° 0 mm 3 mps 638 mmHg 11%
    16:00 +36°C° 0 mm 3 mps 638 mmHg 12%
    17:00 +36°C° 0 mm 4 mps 637 mmHg 12%
    18:00 +33°C° 0 mm 3 mps 637 mmHg 15%
    19:00 +30°C° 0 mm 3 mps 637 mmHg 18%
    20:00 +27°C° 0 mm 2 mps 637 mmHg 21%
    21:00 +26°C° 0 mm 3 mps 637 mmHg 23%
    22:00 +25°C° 0 mm 3 mps 637 mmHg 26%
    23:00 +24°C° 0 mm 3 mps 637 mmHg 28%

    Day after tomorrow, 22 October, Tuesday

    Time Temperature Precipitation Wind Pressure Humidity
    00:00 +24°C° 0 mm 3 mps 637 mmHg 31%
    01:00 +22°C° 0 mm 3 mps 637 mmHg 34%
    02:00 +22°C° 0 mm 3 mps 636 mmHg 37%
    03:00 +21°C° 0 mm 3 mps 636 mmHg 40%
    04:00 +21°C° 0 mm 3 mps 636 mmHg 43%
    05:00 +20°C° 0 mm 2 mps 636 mmHg 45%
    06:00 +24°C° 0 mm 3 mps 637 mmHg 41%
    07:00 +26°C° 0 mm 3 mps 638 mmHg 37%
    08:00 +29°C° 0 mm 4 mps 639 mmHg 33%
    09:00 +32°C° 0 mm 4 mps 640 mmHg 27%
    10:00 +34°C° 0 mm 5 mps 640 mmHg 21%
    11:00 +37°C° 0 mm 5 mps 640 mmHg 15%
    12:00 +37°C° 0 mm 5 mps 640 mmHg 14%
    13:00 +37°C° 0 mm 5 mps 639 mmHg 14%
    14:00 +39°C° 0 mm 5 mps 638 mmHg 13%
    15:00 +36°C° 0 mm 5 mps 638 mmHg 15%
    16:00 +35°C° 0 mm 5 mps 637 mmHg 16%
    17:00 +34°C° 0 mm 5 mps 637 mmHg 18%
    18:00 +32°C° 0 mm 5 mps 637 mmHg 22%
    19:00 +30°C° 0 mm 5 mps 638 mmHg 26%
    20:00 +28°C° 0 mm 5 mps 638 mmHg 30%
    21:00 +27°C° 0 mm 4 mps 638 mmHg 40%
    22:00 +25°C° 0 mm 4 mps 637 mmHg 49%
    23:00 +22°C° 0 mm 4 mps 637 mmHg 59%

    23 October, Wednesday

    Time Temperature Precipitation Wind Pressure Humidity
    00:00 +21°C° 0 mm 3 mps 637 mmHg 63%
    01:00 +21°C° 0 mm 3 mps 636 mmHg 67%
    02:00 +20°C° 0 mm 3 mps 636 mmHg 71%
    03:00 +20°C° 0 mm 4 mps 636 mmHg 72%
    04:00 +19°C° 0 mm 4 mps 637 mmHg 73%
    05:00 +19°C° 0 mm 5 mps 637 mmHg 74%
    06:00 +21°C° 0 mm 5 mps 638 mmHg 62%
    07:00 +23°C° 0 mm 6 mps 638 mmHg 50%
    08:00 +26°C° 0 mm 7 mps 639 mmHg 38%
    09:00 +29°C° 0 mm 6 mps 640 mmHg 33%
    10:00 +32°C° 0 mm 6 mps 640 mmHg 28%
    11:00 +34°C° 0 mm 6 mps 640 mmHg 23%
    12:00 +35°C° 0 mm 5 mps 639 mmHg 21%
    13:00 +36°C° 0 mm 5 mps 639 mmHg 19%
    14:00 +37°C° 0 mm 4 mps 638 mmHg 17%
    15:00 +36°C° 0 mm 4 mps 638 mmHg 18%
    16:00 +35°C° 0 mm 4 mps 638 mmHg 19%
    17:00 +34°C° 0 mm 4 mps 637 mmHg 20%
    18:00 +32°C° 0 mm 4 mps 637 mmHg 24%
    19:00 +29°C° 0 mm 4 mps 637 mmHg 29%
    20:00 +26°C° 0 mm 3 mps 637 mmHg 34%
    21:00 +26°C° 0 mm 3 mps 637 mmHg 35%
    22:00 +25°C° 0 mm 3 mps 637 mmHg 37%
    23:00 +24°C° 0 mm 3 mps 637 mmHg 39%

    24 October, Thursday

    Time Temperature Precipitation Wind Pressure Humidity
    00:00 +24°C° 0 mm 3 mps 637 mmHg 40%
    01:00 +22°C° 0 mm 3 mps 637 mmHg 41%
    02:00 +22°C° 0 mm 3 mps 636 mmHg 43%
    03:00 +21°C° 0 mm 3 mps 637 mmHg 46%
    04:00 +21°C° 0 mm 3 mps 637 mmHg 49%
    05:00 +20°C° 0 mm 3 mps 637 mmHg 52%
    06:00 +22°C° 0 mm 4 mps 638 mmHg 47%
    07:00 +26°C° 0 mm 4 mps 639 mmHg 43%
    08:00 +28°C° 0 mm 5 mps 640 mmHg 39%
    09:00 +30°C° 0 mm 4 mps 640 mmHg 33%
    10:00 +33°C° 0 mm 4 mps 640 mmHg 27%
    11:00 +35°C° 0 mm 4 mps 641 mmHg 20%
    12:00 +36°C° 0 mm 4 mps 640 mmHg 19%
    13:00 +37°C° 0 mm 5 mps 639 mmHg 17%
    14:00 +37°C° 0 mm 5 mps 639 mmHg 16%
    15:00 +37°C° 0 mm 5 mps 638 mmHg 16%
    16:00 +36°C° 0 mm 5 mps 638 mmHg 16%
    17:00 +35°C° 0 mm 5 mps 637 mmHg 16%
    18:00 +33°C° 0 mm 4 mps 637 mmHg 19%
    19:00 +29°C° 0 mm 4 mps 637 mmHg 23%
    20:00 +27°C° 0 mm 4 mps 637 mmHg 26%
    21:00 +26°C° 0 mm 4 mps 637 mmHg 29%
    22:00 +26°C° 0 mm 4 mps 637 mmHg 31%
    23:00 +25°C° 0 mm 4 mps 637 mmHg 34%

    25 October, Friday

    Time Temperature Precipitation Wind Pressure Humidity
    00:00 +25°C° 0 mm 4 mps 637 mmHg 37%
    01:00 +23°C° 0 mm 4 mps 637 mmHg 39%
    02:00 +23°C° 0 mm 5 mps 637 mmHg 42%
    03:00 +22°C° 0 mm 4 mps 637 mmHg 45%
    04:00 +22°C° 0 mm 4 mps 638 mmHg 47%
    05:00 +21°C° 0 mm 4 mps 638 mmHg 50%
    06:00 +23°C° 0 mm 4 mps 639 mmHg 46%
    07:00 +26°C° 0 mm 5 mps 639 mmHg 42%
    08:00 +28°C° 0 mm 6 mps 640 mmHg 38%
    09:00 +30°C° 0 mm 5 mps 640 mmHg 32%
    10:00 +33°C° 0 mm 4 mps 641 mmHg 27%
    11:00 +35°C° 0 mm 4 mps 641 mmHg 21%
    12:00 +36°C° 0 mm 4 mps 640 mmHg 19%
    13:00 +37°C° 0 mm 4 mps 640 mmHg 16%
    14:00 +38°C° 0 mm 4 mps 639 mmHg 13%
    15:00 +37°C° 0 mm 4 mps 638 mmHg 13%
    16:00 +36°C° 0 mm 4 mps 638 mmHg 13%
    17:00 +36°C° 0 mm 4 mps 638 mmHg 14%
    18:00 +33°C° 0 mm 4 mps 637 mmHg 17%
    19:00 +30°C° 0 mm 4 mps 637 mmHg 21%
    20:00 +28°C° 0 mm 4 mps 637 mmHg 25%
    21:00 +27°C° 0 mm 4 mps 637 mmHg 27%
    22:00 +26°C° 0 mm 4 mps 637 mmHg 29%
    23:00 +25°C° 0 mm 4 mps 637 mmHg 32%
    Show more